Temp
63 64 64 64 64 65 65 65 66 66 66 66 65 65 65 65 65 64 58 68 71 75 72 73 73 72 72 67 70 70 54 51 55 59 63 73 69 72 74 70 74 74 73 75 79
63 63 63 63 64 64 64 65 65 66 65 65 65 65 65 64 66 62 71 75 75 74 70 68 66 69 63 64 64 59 52 55 65 67 65 69 69 69 67 68 67 71 77 79 78
63 63 63 63 63 63 63 64 64 65 65 65 65 64 64 65 57 64 76 74 73 74 71 72 72 68 60 63 63 60 52 63 66 69 69 66 66 70 66 62 68 68 73 76 76
63 62 63 62 62 62 62 63 63 63 65 65 64 64 64 62 46 68 74 73 73 73 69 68 66 60 57 56 64 56 63 64 65 69 67 63 68 65 66 66 73 73 74 73 72
62 62 62 62 62 62 62 62 62 63 64 64 64 64 61 53 57 70 70 71 72 68 65 65 61 60 55 60 62 58 61 66 67 66 65 67 62 62 64 70 73 74 74 72 71
62 62 62 62 61 61 61 61 61 62 62 64 63 63 57 49 70 73 73 72 70 66 64 66 63 64 60 60 59 62 62 63 64 65 64 62 61 62 64 70 70 71 70 71 71
62 62 61 61 61 61 61 61 61 60 61 64 63 63 57 57 74 70 69 71 73 68 61 67 66 61 61 57 63 61 53 58 59 61 60 62 55 57 65 68 67 67 69 72 72
61 61 60 60 60 60 60 60 60 59 60 63 64 61 53 71 71 70 70 68 72 72 66 67 66 60 59 61 59 52 52 44 59 61 62 59 46 60 67 65 64 66 68 70 71
59 59 59 58 58 58 59 59 59 60 60 62 59 57 51 65 62 69 71 66 68 68 66 69 64 58 58 49 45 49 41 46 52 61 59 56 49 61 66 65 62 63 65 68 70
58 58 58 57 57 57 57 58 59 58 59 60 62 51 58 55 63 67 70 70 64 63 61 59 56 49 49 45 36 42 43 48 47 55 55 52 51 58 62 63 60 61 62 63 66
58 57 57 56 56 56 55 53 47 48 51 48 51 55 58 64 66 63 68 65 64 58 48 53 44 40 48 50 51 50 47 45 51 58 52 50 51 55 59 60 60 61 62 64 66
57 56 56 56 56 57 54 47 48 48 42 52 58 58 62 62 53 58 67 56 53 46 51 45 39 50 55 55 51 49 44 43 50 56 51 48 48 53 57 58 60 61 62 63 65
56 56 56 56 56 54 50 50 53 50 43 47 55 56 56 60 53 53 60 58 51 46 46 42 48 54 51 49 46 45 43 44 44 50 50 47 43 48 57 59 61 62 64 65 64
56 57 57 55 51 52 49 54 52 50 34 39 44 54 57 57 51 61 63 58 52 46 49 48 53 50 47 46 48 40 50 49 47 40 32 46 28 43 51 54 57 58 58 60 62
57 57 57 56 49 47 50 52 51 46 25 40 44 62 57 52 52 52 63 57 48 49 49 42 45 45 43 46 50 44 49 46 44 38 33 36 30 39 50 48 53 54 58 59 61
56 56 56 52 51 54 53 51 46 30 26 35 43 45 45 51 51 53 54 58 58 50 51 48 53 49 48 51 50 50 45 42 40 35 21 33 35 37 44 50 53 53 57 59 60
56 56 54 54 44 57 50 44 30 25 38 35 38 44 45 44 45 47 44 42 39 33 35 42 44 49 51 43 47 46 38 23 21 22 21 42 36 40 50 55 56 52 55 59 60
55 54 54 54 53 55 46 35 26 36 36 44 42 44 40 44 43 43 41 38 45 43 37 30 31 44 49 44 40 40 39 25 22 20 26 40 28 39 51 55 58 58 58 58 58
55 53 49 51 54 51 38 29 30 39 44 40 40 35 35 43 43 42 40 40 44 47 34 33 35 49 49 49 47 39 31 40 31 31 23 31 38 49 54 55 57 55 57 55 57
48 50 46 54 54 47 36 34 37 41 48 46 37 42 34 39 40 40 40 47 46 50 50 44 30 44 47 48 47 42 46 31 29 14 19 29 33 36 45 47 52 52 50 53 55
48 42 48 55 53 41 33 34 40 48 52 47 43 42 42 38 42 40 42 49 50 49 52 47 37 37 41 38 37 38 35 35 34 30 20 22 30 46 46 48 48 51 52 52 53
45 36 50 54 38 37 36 36 44 47 52 51 52 49 44 44 42 42 43 48 54 52 44 48 41 27 34 46 47 45 38 38 28 23 29 28 30 52 51 50 52 52 55 51 55
42 41 51 50 34 36 39 40 45 46 47 50 49 52 51 46 41 46 47 51 52 49 45 47 35 25 28 39 45 41 42 43 40 36 28 25 31 54 54 53 54 55 54 55 58
42 35 42 44 44 41 37 39 40 48 50 53 50 53 50 47 48 44 44 48 51 51 51 51 41 30 25 30 37 31 37 42 38 30 31 33 36 45 49 51 49 49 52 53 54
42 40 44 37 41 42 42 43 40 41 51 53 48 50 48 43 43 43 47 46 49 49 49 45 31 33 38 41 39 37 37 39 35 35 31 35 36 42 46 48 51 52 50 51 50
40 39 43 46 47 41 44 40 43 47 48 47 46 50 49 45 45 44 46 46 44 47 44 44 32 34 29 39 38 35 39 40 42 40 38 38 37 47 48 51 49 44 46 47 48
45 48 42 43 46 46 45 47 47 49 49 50 51 49 46 47 50 50 50 51 50 45 43 39 35 32 26 39 37 32 38 40 41 42 40 34 41 48 47 49 46 42 44 46 48
MSLP
1015.44 1015.02 1014.60 1014.11 1013.64 1013.32 1013.12 1012.86 1012.74 1013.01 1013.01 1012.92 1012.81 1012.66 1012.67 1012.45 1012.03 1012.07 1011.56 1011.02 1011.02 1010.98 1011.10 1010.88 1010.75 1010.68 1010.54 1010.37 1009.91 1009.66 1009.70 1008.94 1008.50 1007.85 1006.87 1006.12 1005.66 1005.35 1005.54 1006.28 1006.04 1005.91 1006.15 1006.83 1006.97
1015.51 1015.04 1014.64 1014.20 1013.79 1013.43 1013.01 1012.65 1012.40 1012.56 1012.62 1012.63 1012.53 1012.39 1012.35 1012.03 1011.28 1010.81 1010.39 1010.31 1010.50 1010.77 1011.08 1010.68 1010.38 1010.39 1010.46 1010.27 1009.98 1009.70 1009.42 1008.59 1008.07 1007.44 1006.97 1006.53 1005.91 1005.87 1006.20 1006.58 1006.62 1006.38 1006.10 1006.56 1007.12
1015.39 1015.04 1014.69 1014.33 1013.89 1013.47 1013.17 1012.65 1012.11 1012.17 1012.26 1012.15 1012.26 1012.18 1012.18 1011.98 1011.40 1009.52 1009.26 1010.09 1010.50 1010.59 1010.91 1010.34 1010.02 1010.02 1010.23 1009.94 1009.85 1009.62 1009.13 1008.57 1007.86 1007.40 1006.98 1007.10 1006.98 1006.58 1006.66 1006.85 1006.68 1006.50 1006.22 1006.35 1006.70
1015.11 1014.79 1014.40 1014.16 1013.88 1013.49 1013.15 1012.59 1011.99 1011.87 1011.71 1011.78 1012.09 1012.10 1012.07 1011.99 1010.80 1009.23 1009.20 1009.84 1010.15 1010.59 1010.79 1010.34 1010.18 1009.97 1010.01 1009.81 1009.60 1009.31 1009.01 1008.80 1008.05 1007.53 1007.63 1007.69 1007.80 1007.47 1007.31 1007.03 1006.94 1006.47 1006.37 1006.40 1006.64
1014.96 1014.53 1014.12 1013.83 1013.54 1013.23 1012.77 1012.24 1011.83 1011.39 1011.26 1011.51 1011.76 1011.92 1012.08 1011.31 1010.07 1009.62 1009.70 1009.86 1010.05 1010.61 1010.38 1010.05 1010.13 1010.05 1009.87 1009.50 1009.44 1009.18 1009.20 1008.62 1008.03 1007.85 1007.87 1008.19 1008.27 1008.25 1007.76 1007.53 1007.05 1006.82 1006.54 1006.54 1006.68
1014.68 1014.32 1013.98 1013.59 1013.27 1012.96 1012.57 1012.17 1011.70 1011.41 1011.18 1011.32 1011.35 1011.79 1011.89 1010.58 1009.20 1009.42 1009.44 1009.54 1009.83 1010.12 1010.17 1010.08 1010.10 1009.97 1009.78 1009.42 1009.28 1009.12 1009.15 1008.92 1008.54 1008.14 1008.11 1008.38 1008.34 1008.62 1008.09 1007.47 1007.34 1007.15 1006.82 1006.68 1006.55
1014.43 1013.99 1013.76 1013.44 1013.03 1012.66 1012.34 1012.00 1011.61 1011.39 1010.98 1011.02 1011.11 1011.48 1010.91 1009.73 1008.78 1009.40 1009.58 1009.27 1009.17 1009.53 1010.06 1010.03 1010.32 1010.33 1010.19 1010.04 1009.75 1009.70 1009.92 1009.53 1008.86 1008.36 1008.16 1008.48 1008.17 1008.03 1007.77 1007.41 1007.17 1006.93 1006.73 1006.66 1006.50
1014.20 1013.75 1013.35 1013.09 1012.87 1012.45 1012.14 1011.77 1011.43 1011.26 1011.04 1010.81 1010.94 1011.10 1010.10 1008.77 1009.04 1009.25 1009.42 1009.52 1009.23 1009.21 1010.05 1010.30 1010.73 1010.85 1010.68 1010.72 1010.45 1010.45 1010.36 1009.67 1007.71 1007.46 1007.85 1008.56 1007.62 1007.45 1006.74 1006.74 1006.64 1006.63 1006.64 1006.29 1006.02
1013.90 1013.59 1013.33 1012.86 1012.60 1012.20 1011.83 1011.51 1011.13 1010.81 1010.59 1010.51 1010.81 1010.59 1009.73 1009.52 1009.15 1009.02 1008.98 1009.00 1009.25 1009.65 1010.38 1010.59 1010.90 1010.82 1010.88 1011.00 1010.84 1010.44 1010.11 1009.27 1008.14 1007.43 1007.57 1007.88 1007.59 1006.86 1006.75 1006.18 1006.24 1006.05 1005.80 1005.47 1005.42
1013.59 1013.25 1012.92 1012.62 1012.24 1011.85 1011.46 1010.98 1010.54 1010.54 1010.19 1010.53 1010.21 1010.62 1009.10 1008.51 1008.43 1008.82 1008.86 1008.91 1009.43 1009.97 1010.42 1010.81 1010.94 1010.94 1010.92 1011.02 1010.45 1009.94 1010.13 1009.30 1008.44 1007.92 1007.95 1008.10 1007.79 1007.39 1006.88 1006.55 1006.17 1006.06 1005.59 1005.38 1005.21
1013.23 1012.84 1012.56 1012.24 1011.90 1011.51 1011.20 1010.63 1010.63 1010.12 1009.23 1009.02 1008.74 1007.90 1007.14 1007.95 1008.58 1008.74 1008.90 1009.20 1009.67 1010.33 1010.64 1010.98 1011.14 1010.56 1010.18 1010.38 1010.08 1009.91 1010.13 1009.91 1008.85 1008.29 1008.24 1008.18 1007.88 1007.50 1006.91 1006.31 1005.72 1005.65 1005.59 1005.29 1005.01
1012.99 1012.65 1012.28 1011.94 1011.59 1011.01 1011.02 1010.70 1010.20 1010.43 1009.40 1008.58 1008.00 1007.77 1007.83 1008.00 1008.41 1008.97 1009.01 1009.37 1009.94 1010.41 1010.74 1011.73 1010.97 1010.40 1010.14 1009.84 1010.06 1010.27 1010.46 1010.37 1009.87 1009.17 1009.00 1008.71 1007.84 1007.24 1006.21 1005.20 1005.11 1004.96 1004.92 1004.69 1004.67
1012.80 1012.35 1011.96 1011.76 1011.22 1010.75 1010.75 1010.16 1010.11 1010.47 1009.22 1008.82 1008.12 1007.65 1007.96 1008.01 1008.13 1008.69 1009.04 1009.17 1009.96 1010.53 1010.85 1010.84 1010.41 1010.28 1010.52 1010.18 1010.51 1010.77 1010.95 1010.90 1010.70 1010.24 1009.98 1009.40 1007.56 1006.14 1004.30 1003.82 1003.91 1003.97 1004.02 1004.17 1004.05
1012.48 1011.85 1011.55 1011.50 1011.20 1010.70 1010.24 1009.97 1009.87 1010.61 1009.54 1008.82 1008.28 1007.51 1008.01 1008.00 1008.22 1008.99 1009.21 1009.33 1009.87 1010.31 1010.60 1010.75 1010.48 1010.49 1010.69 1010.46 1010.70 1011.14 1011.06 1011.20 1011.31 1011.77 1011.49 1010.64 1009.07 1006.10 1004.58 1003.62 1003.26 1003.20 1003.27 1003.20 1003.28
1011.90 1011.41 1011.13 1011.15 1011.15 1010.73 1010.80 1010.45 1010.33 1010.87 1009.40 1008.72 1008.23 1007.10 1007.76 1008.23 1008.50 1009.41 1009.32 1009.55 1009.74 1009.91 1010.56 1010.65 1010.62 1010.74 1010.88 1010.61 1010.97 1011.68 1011.95 1012.34 1012.66 1012.96 1012.82 1011.65 1011.20 1004.96 1004.08 1003.58 1003.07 1003.17 1002.94 1002.62 1002.71
1011.34 1010.92 1010.56 1010.40 1010.73 1010.40 1010.52 1010.58 1010.51 1011.38 1008.80 1008.38 1008.13 1007.67 1008.21 1008.47 1008.75 1009.45 1009.60 1010.10 1009.85 1010.14 1010.36 1010.55 1010.95 1010.86 1010.94 1010.96 1011.44 1012.28 1012.67 1013.28 1013.70 1014.10 1013.39 1011.30 1010.02 1003.76 1003.78 1003.12 1002.92 1002.79 1002.80 1002.66 1002.52
1010.72 1010.07 1009.47 1009.50 1009.54 1009.95 1010.87 1011.17 1010.96 1009.37 1008.15 1008.26 1007.80 1007.87 1008.29 1008.78 1009.49 1009.77 1010.09 1010.47 1010.28 1010.98 1011.02 1011.11 1011.04 1011.30 1011.42 1011.63 1012.18 1012.73 1013.63 1014.00 1014.43 1014.41 1012.48 1009.98 1009.24 1004.49 1003.55 1003.14 1002.93 1002.92 1003.02 1002.87 1002.54
1010.01 1008.90 1008.10 1008.12 1008.97 1009.54 1010.93 1011.05 1009.50 1007.69 1007.13 1007.19 1007.59 1008.23 1008.49 1008.94 1009.77 1010.24 1010.52 1010.69 1010.71 1010.60 1010.52 1010.93 1010.94 1010.96 1011.42 1011.73 1012.19 1012.99 1013.70 1013.87 1014.06 1013.59 1011.94 1010.49 1007.42 1004.41 1002.81 1002.18 1001.84 1001.94 1002.17 1002.51 1002.51
1009.69 1008.49 1008.24 1007.69 1008.32 1009.48 1010.41 1010.15 1008.57 1007.00 1006.32 1006.55 1007.73 1008.19 1008.67 1008.99 1009.35 1010.08 1010.36 1010.39 1010.29 1010.24 1010.50 1010.46 1010.77 1010.73 1011.35 1011.86 1012.31 1013.00 1013.67 1013.68 1014.17 1013.70 1012.31 1009.27 1006.17 1003.90 1002.74 1001.94 1001.53 1001.40 1001.66 1002.10 1002.19
1009.74 1008.91 1009.33 1009.08 1009.40 1009.85 1010.24 1009.07 1008.18 1007.07 1005.88 1006.31 1006.33 1006.89 1007.65 1008.49 1008.72 1009.20 1009.66 1009.10 1009.39 1009.58 1009.89 1010.33 1010.86 1011.13 1011.68 1012.07 1012.15 1012.37 1012.83 1013.97 1014.59 1014.30 1011.85 1008.00 1006.14 1004.07 1003.04 1002.57 1002.08 1001.62 1001.67 1002.09 1002.05
1009.61 1009.32 1010.10 1009.87 1009.79 1009.90 1009.61 1008.68 1007.48 1006.53 1005.85 1005.32 1005.36 1005.71 1006.42 1007.60 1007.99 1008.51 1008.65 1008.08 1008.64 1008.95 1009.61 1010.39 1010.99 1012.01 1012.20 1011.96 1011.59 1012.41 1012.82 1013.62 1014.11 1013.86 1012.37 1009.06 1005.63 1003.53 1003.23 1002.71 1002.34 1002.18 1002.00 1002.34 1002.41
1009.96 1009.73 1010.17 1009.69 1010.24 1009.90 1009.16 1008.89 1007.78 1006.74 1005.65 1004.75 1004.45 1004.97 1005.89 1006.92 1007.46 1007.85 1007.65 1007.71 1008.04 1008.57 1009.48 1010.34 1011.02 1011.83 1011.57 1011.24 1011.39 1011.59 1012.16 1012.89 1013.58 1012.85 1012.01 1010.13 1005.01 1003.66 1003.03 1002.99 1002.78 1002.59 1001.97 1002.06 1002.23
1010.15 1010.20 1010.31 1009.95 1009.61 1009.21 1009.25 1008.33 1007.68 1006.77 1005.93 1005.11 1004.80 1004.52 1005.41 1006.10 1006.81 1007.07 1007.37 1008.03 1008.13 1008.55 1009.22 1010.16 1011.30 1012.00 1011.46 1011.16 1010.94 1011.17 1011.40 1011.73 1012.06 1012.22 1011.09 1010.46 1004.80 1003.17 1002.82 1002.89 1002.89 1002.86 1002.65 1002.23 1002.13
1010.66 1010.42 1010.73 1010.26 1009.85 1009.45 1009.10 1008.40 1007.86 1007.21 1006.13 1005.36 1005.06 1005.03 1005.20 1005.93 1006.31 1006.89 1007.62 1008.43 1008.61 1008.94 1009.47 1010.15 1010.96 1011.57 1011.41 1011.03 1011.17 1011.36 1011.03 1011.02 1011.43 1011.12 1009.57 1007.67 1004.61 1003.99 1003.50 1002.92 1003.34 1003.42 1003.48 1002.94 1002.53
1010.83 1010.50 1010.12 1009.89 1009.28 1008.79 1008.93 1008.25 1007.80 1007.13 1006.12 1005.60 1005.76 1005.69 1005.78 1006.26 1006.80 1007.10 1007.82 1008.65 1009.07 1009.45 1009.88 1010.59 1011.50 1011.65 1011.40 1010.92 1010.61 1010.21 1009.93 1009.91 1010.18 1009.63 1009.18 1006.42 1006.14 1004.04 1003.84 1003.32 1002.86 1003.01 1002.99 1003.14 1002.79
1011.30 1010.89 1009.86 1009.05 1009.18 1009.14 1008.29 1008.10 1007.47 1006.86 1006.54 1006.31 1006.06 1006.10 1006.29 1006.54 1007.07 1007.17 1007.75 1008.22 1008.72 1009.65 1010.27 1010.90 1011.58 1011.76 1011.25 1010.14 1009.66 1009.16 1008.66 1008.42 1008.11 1007.91 1007.44 1006.47 1004.93 1004.25 1003.57 1002.86 1002.74 1003.09 1003.35 1003.39 1003.30
1012.22 1011.75 1011.22 1009.68 1008.56 1007.85 1007.52 1007.28 1007.15 1006.97 1007.23 1006.93 1006.56 1006.69 1006.95 1007.54 1007.60 1007.82 1007.98 1008.35 1008.68 1009.23 1010.02 1011.02 1011.77 1012.13 1010.83 1009.50 1008.93 1007.78 1006.74 1006.96 1006.97 1006.91 1006.60 1005.56 1004.47 1003.80 1003.09 1003.02 1003.21 1003.62 1003.73 1003.62 1003.42
Wind_Speed
18 18 19 20 21 18 18 14 14 13 12 11 11 11 12 14 17 13 16 11 18 9 2 9 8 10 10 8 12 7 8 11 15 15 12 10 7 1 4 6 8 4 5 8 6
20 18 18 19 19 20 18 17 15 13 11 10 10 11 12 15 10 13 12 12 9 9 8 10 9 11 9 9 6 6 9 11 11 11 10 12 6 5 3 8 6 9 7 10 7
18 18 18 18 19 19 19 19 15 13 11 10 10 9 10 11 8 12 16 14 10 9 12 12 9 10 9 9 11 8 13 9 13 15 6 7 12 6 7 7 6 8 7 8 9
18 19 19 18 18 17 18 19 18 16 12 9 8 8 8 7 5 6 7 13 11 10 12 14 10 7 6 12 10 16 12 15 15 16 6 5 9 10 11 8 8 11 8 5 5
19 20 20 18 19 19 19 19 19 18 12 10 7 7 5 6 7 6 5 5 10 11 14 11 11 10 11 9 11 11 15 12 9 9 7 9 9 11 14 12 10 10 10 9 4
21 20 20 21 20 19 19 20 19 18 14 10 7 4 4 11 8 7 6 9 10 14 11 9 1 6 5 8 8 4 6 10 12 11 7 13 11 11 8 13 13 15 13 10 9
23 23 20 21 20 19 19 20 19 17 11 12 9 7 9 11 3 8 1 6 7 15 9 8 3 2 7 5 10 4 8 11 13 12 9 5 13 17 18 16 16 13 13 15 13
23 23 24 22 20 22 19 20 19 20 18 14 11 8 7 2 1 3 13 10 6 11 8 5 3 2 1 4 1 3 9 7 10 19 12 11 12 12 11 17 19 17 16 15 13
22 22 23 22 20 20 20 21 19 20 17 16 6 7 7 3 9 8 8 9 6 4 12 7 4 4 5 2 4 7 6 11 7 7 4 9 6 12 12 7 8 8 9 12 14
20 21 21 18 21 20 18 18 15 14 7 7 6 7 9 9 8 12 6 8 10 11 7 7 5 5 5 7 5 5 9 7 7 4 4 8 12 12 12 13 9 9 9 8 8
20 21 20 18 16 14 10 4 4 5 10 6 13 2 11 11 10 11 10 12 9 11 6 5 4 9 11 12 12 11 7 11 10 10 8 9 14 14 13 13 15 12 11 12 13
20 20 17 16 16 18 8 3 4 5 4 15 5 15 13 11 10 13 12 9 8 11 7 3 8 9 8 4 3 7 7 11 11 10 6 10 17 17 21 20 16 15 13 15 12
19 20 16 15 20 11 6 12 6 9 4 9 7 11 12 7 8 15 15 10 12 13 12 6 2 10 11 5 4 7 7 9 11 11 11 13 16 11 6 16 18 19 19 15 14
19 18 12 12 11 8 4 7 9 2 2 9 6 9 7 7 6 13 12 7 6 14 11 9 5 3 4 7 5 6 5 6 7 5 4 8 9 8 9 7 6 8 9 10 10
18 17 14 9 6 5 4 4 8 4 6 13 8 10 10 6 15 11 13 3 11 9 6 1 3 5 5 4 6 3 5 5 5 6 7 5 4 9 10 10 6 6 9 9 9
21 20 21 7 6 7 7 2 6 4 4 4 7 13 14 9 3 13 10 1 4 4 8 4 5 1 3 3 2 6 2 2 4 1 5 11 10 15 6 10 6 2 8 9 6
24 27 21 7 6 5 7 0 4 6 6 8 6 14 16 11 8 15 10 8 5 5 8 4 9 4 2 1 2 5 2 1 2 3 8 1 9 17 13 14 12 4 8 9 8
26 28 9 5 11 8 4 1 4 5 1 5 9 17 10 14 7 11 11 8 10 8 7 5 4 14 9 8 6 9 6 4 5 3 4 5 9 7 1 6 6 6 8 8 9
25 6 6 3 14 9 4 3 4 4 10 10 16 5 6 12 8 10 11 7 11 10 4 5 1 11 12 8 7 6 7 3 6 6 6 7 6 11 14 17 15 7 8 8 8
5 1 8 10 12 6 1 2 1 8 17 15 6 7 8 15 8 11 13 13 12 15 8 3 2 2 6 2 7 6 3 2 1 3 8 6 8 8 9 6 9 9 2 5 3
1 3 6 9 2 2 2 3 5 7 14 3 8 9 10 13 7 10 10 2 15 12 13 5 0 4 5 9 9 6 8 2 3 3 4 8 5 5 7 5 4 6 2 5 4
3 3 3 3 1 3 2 3 3 2 4 3 2 11 12 14 10 8 10 3 12 11 12 7 2 3 11 9 13 10 9 13 4 6 5 6 15 20 16 5 7 9 7 2 6
2 3 1 3 1 3 4 4 2 3 4 2 3 4 15 11 6 9 9 5 4 6 10 8 3 2 2 3 7 7 10 10 15 9 15 11 14 9 15 11 7 12 10 7 7
1 3 2 1 2 1 2 1 4 5 5 7 7 4 6 10 5 8 6 2 5 5 6 9 3 6 4 3 2 4 7 9 9 6 11 22 30 24 20 18 4 7 15 15 4
1 2 4 2 2 8 4 3 6 4 4 4 2 2 5 6 4 4 8 7 5 4 4 2 3 4 7 13 12 14 17 17 16 18 15 24 25 27 22 21 19 8 8 8 6
3 4 5 2 11 12 6 1 1 5 5 2 2 5 3 4 6 8 6 7 6 8 5 3 3 3 6 16 16 16 16 18 18 18 19 22 26 20 17 14 9 6 7 7 8
3 2 4 1 4 2 3 4 3 1 4 7 3 4 7 8 6 5 5 2 3 7 9 5 2 2 5 10 13 6 5 6 9 11 11 12 19 17 14 9 2 3 5 8 11
Wind_Direction
343 339 338 339 346 340 338 295 258 260 269 276 284 288 287 292 279 244 226 230 225 214 154 263 206 226 234 244 252 227 239 237 242 251 263 276 297 207 138 268 299 187 239 120 81
337 339 336 335 333 342 330 329 264 253 264 270 280 286 296 310 233 214 224 218 241 164 204 228 207 210 211 220 228 211 218 239 246 253 262 317 253 265 251 245 246 284 228 131 155
336 334 334 331 325 331 336 328 313 245 252 265 273 285 299 312 275 248 210 189 190 189 226 247 241 201 224 229 217 212 245 237 242 270 323 331 319 319 262 241 257 227 231 185 177
330 330 328 327 324 316 321 330 325 254 236 248 258 281 304 272 234 95 107 182 184 206 229 221 237 226 228 236 232 242 235 238 265 282 338 294 295 290 285 262 278 285 309 308 186
324 325 322 323 321 320 317 324 325 325 235 219 234 275 281 214 241 123 134 170 213 214 222 209 207 212 227 222 231 230 245 258 261 260 296 295 269 276 282 298 276 286 286 295 294
315 320 323 319 316 315 313 313 320 331 244 217 204 251 232 243 141 143 197 177 219 200 222 224 212 304 286 270 240 253 285 273 272 275 246 261 257 255 254 256 269 271 272 272 256
314 317 320 317 313 307 311 310 311 311 281 218 197 212 234 239 226 161 296 261 228 189 190 224 87 247 2 310 330 296 303 277 257 247 241 266 257 250 250 252 260 255 242 245 254
313 315 316 317 315 307 306 303 299 307 311 215 188 215 242 168 29 204 180 212 248 159 187 147 147 42 267 40 260 257 245 259 245 219 222 200 254 263 268 227 233 240 249 252 242
312 314 314 313 307 305 301 297 293 300 301 193 171 223 230 144 195 192 196 170 146 163 149 171 175 195 165 211 233 213 263 217 251 167 192 198 262 259 238 260 254 246 262 232 231
315 310 307 306 311 303 301 286 282 290 212 196 282 187 210 205 164 188 212 157 159 150 132 154 192 187 189 184 198 211 213 261 288 123 177 249 262 276 291 285 257 249 268 263 263
320 313 310 301 312 309 319 301 239 176 183 187 179 254 140 107 129 172 189 157 159 161 168 188 182 205 201 208 250 302 310 304 311 320 330 276 272 265 267 261 261 249 247 249 247
321 319 323 321 311 316 308 243 318 28 177 243 158 229 125 153 137 172 183 160 170 194 136 137 236 219 246 273 302 260 273 277 278 271 302 301 283 277 258 255 248 248 245 245 251
321 320 321 314 316 307 306 267 110 10 220 205 225 176 151 202 145 166 182 180 185 202 173 198 63 199 238 239 211 260 257 275 290 317 315 280 281 237 274 230 235 239 243 253 253
318 313 312 308 301 328 300 334 103 35 183 154 199 163 165 218 134 161 194 178 186 203 209 231 207 162 194 215 208 264 356 330 295 339 260 28 290 289 273 270 186 214 218 220 229
321 311 298 303 295 303 27 353 100 314 162 145 158 135 156 211 120 176 207 154 192 200 148 194 193 202 206 226 207 223 59 360 324 300 354 228 242 258 221 245 248 298 261 233 235
317 307 297 258 222 257 28 348 74 275 153 115 138 170 153 168 91 152 176 76 323 232 193 190 39 305 210 185 264 58 86 245 288 248 256 206 197 275 207 235 244 59 324 316 268
315 308 301 240 194 161 74 210 136 262 163 129 144 154 158 152 129 163 165 184 157 138 213 248 228 152 269 125 163 220 133 286 267 210 231 53 216 244 312 293 285 325 334 283 286
318 315 280 226 187 165 83 167 249 115 131 179 138 142 162 146 138 173 172 187 232 237 119 178 205 193 167 211 178 197 188 202 267 236 286 298 244 248 256 302 246 285 257 256 282
322 310 22 356 146 143 122 146 296 112 138 133 124 110 126 178 138 166 186 194 199 204 202 161 277 144 157 202 237 154 210 307 315 272 274 223 281 298 266 269 269 258 260 218 256
313 289 54 89 119 124 193 298 230 275 121 149 96 184 146 178 156 185 180 199 212 196 216 31 131 209 142 202 230 225 172 133 135 257 267 237 265 257 323 332 324 300 18 21 339
310 69 116 135 99 17 282 354 34 280 158 265 141 143 154 164 154 183 180 164 192 184 198 194 103 122 82 206 194 186 235 202 344 235 248 308 229 1 339 330 335 323 341 333 324
354 93 220 231 81 260 28 303 323 34 336 14 119 138 147 166 162 184 197 268 178 160 181 197 148 221 215 222 213 199 196 211 221 233 230 283 278 258 259 337 302 285 240 257 269
42 85 61 312 21 22 348 350 282 23 340 43 74 28 146 167 140 221 98 90 112 164 167 171 175 255 284 161 218 215 229 233 230 270 245 267 248 312 318 310 301 290 306 269 292
354 69 54 331 248 129 329 133 111 326 40 63 78 68 121 130 328 116 99 151 174 196 58 159 185 208 216 184 67 231 235 247 257 253 266 245 279 277 283 279 30 284 259 286 318
320 143 169 176 79 65 292 32 70 27 17 33 75 92 138 146 100 127 141 126 168 156 153 151 230 272 263 277 279 272 272 266 248 252 257 282 281 285 290 289 291 297 25 350 2
8 355 327 8 143 194 187 20 171 89 16 80 161 139 26 107 54 166 154 182 167 172 184 184 268 21 278 254 246 257 258 254 260 264 263 267 271 280 282 289 276 36 1 331 333
339 311 291 290 250 276 33 72 86 84 61 24 73 131 88 46 54 40 20 22 80 163 184 156 146 360 262 327 313 266 235 231 270 254 254 271 281 304 284 293 59 327 287 301 293